User: anonymous   Login
Location: Unspecified
(0.0000°N, 0.0000°E)
Time: 03:59:28
(UTC+00:00)
Language:

Picosat 6 - Orbit

View from above orbital plane
View from above orbital plane
View from above satellite
View from above satellite

Ground track
Ground track

The orbit data is extracted from the following two-line orbital elements,

1 26094U 00004M   17327.17388330  .00000168  00000-0  68258-4 0  9996
2 26094 100.1908  41.9825 0034714 108.9431 251.5520 14.42379359933907
Epoch (UTC): 23 November 2017 04:10:23
Eccentricity: 0.0034714
inclination: 100.1908°
perigee height: 726 km
apogee height: 775 km
right ascension of ascending node: 41.9825°
argument of perigee: 108.9431°
revolutions per day: 14.42379359
mean anomaly at epoch: 251.5520°
orbit number at epoch: 93390

The dashed part of the orbit path shows where the satellite is in the earth's shadow,  

DLR